Regional Weather Roundup
Issued by NWS Glasgow, MT

Home | Current Version | Previous Version | Text Only | Print | Product List | Glossary On
Versions: 1 2 3 4 5 6 7 8 9 10 11 12 13 14 15 16 17 18 19 20 21 22 23 24 25 26 27 28 29 30 31 32 33 34 35 36 37 38 39 40 41 42 43 44 45 46 47 48 49 50
000
ASUS45 KGGW 220215
RWRGGW
HOURLY WEATHER ROUNDUP FOR NORTHEAST MONTANA
NATIONAL WEATHER SERVICE GLASGOW MONTANA
800 PM MDT TUE OCT 21 2014

NOTE: "FAIR" INDICATES FEW OR NO CLOUDS BELOW 12,000 FEET WITH NO
SIGNIFICANT WEATHER AND/OR OBSTRUCTIONS TO VISISBILITY.

NORTHEAST MONTANA


CITY           SKY/WX    TMP DP  RH WIND       PRES   REMARKS
GLASGOW        MOCLDY    57  44  62 NW9       29.65R
PLENTYWOOD       N/A     60  40  47 CALM        N/A
WOLF POINT     MOCLDY    60  45  57 W12       29.62R
JORDAN           N/A     57  44  62 W12       29.71R
WINNETT          N/A     51  43  74 W6          N/A
SIDNEY         CLEAR     54  41  62 CALM      29.61R
GLENDIVE       PTCLDY    55  43  62 W12       29.63S
MALTA            N/A     55  47  74 W16         N/A

FORT PECK REPORTS


CITY           SKY/WX    TMP DP  RH WIND       PRES   REMARKS
FORT PECK        N/A     60  46  59 W13         N/A
THE PINES        N/A     60  43  53 NW8         N/A

SOUTHEAST MONTANA


CITY           SKY/WX    TMP DP  RH WIND       PRES   REMARKS
BILLINGS       CLOUDY    54  30  40 W26G43    29.82R
MILES CITY     LGT RAIN  70  42  36 NE5       29.66R
BAKER          LGT RAIN  71  42  35 MISG      29.67R
LIVINGSTON     CLOUDY    46  34  62 SW28G36   29.95R

CENTRAL MONTANA


CITY           SKY/WX    TMP DP  RH WIND       PRES   REMARKS
HAVRE          CLOUDY    50  48  93 SW13      29.77R
LEWISTOWN      LGT RAIN  45  39  79 NW17      29.86R
GREAT FALLS    CLOUDY    44  41  89 SW14      29.85R
CUT BANK       CLOUDY    46  38  73 W17       29.81R
HELENA         CLOUDY    48  36  63 W9G20     29.96R
BUTTE          MOCLDY    38  34  85 NW3       30.02R
BOZEMAN        CLOUDY    42  38  85 E5        30.01S

WESTERN MONTANA


CITY           SKY/WX    TMP DP  RH WIND       PRES   REMARKS
MISSOULA       MOCLDY    45  42  89 CALM      30.01R
KALISPELL      NOT AVBL

NORTH DAKOTA


CITY           SKY/WX    TMP DP  RH WIND       PRES   REMARKS
WILLISTON      PTCLDY    55  43  63 CALM      29.58R
DICKINSON      CLEAR     58  44  60 S9        29.61S
MINOT          CLEAR     58  45  62 SE8       29.60S
BISMARCK       CLEAR     67  43  41 SE12      29.68R

SOUTHERN SASKATCHEWAN


CITY           SKY/WX    TMP DP  RH WIND       PRES   REMARKS
REGINA         MOCLDY    55  45  67 SE14      29.57S
ESTEVAN        PTCLDY    50  43  76 E8        29.59S
SWIFT CURRENT  MOCLDY    54  39  58 W16       29.63R




USA.gov is the U.S. government's official web portal to all federal, state and local government web resources and services.